Change the Weather History Date:

Thursday, January 23, 2014

  Actual Average Record
Temperature  
Mean Temperature 61 °F -  
Max Temperature 72 °F 73 °F 78 °F (2009)
Min Temperature 50 °F 52 °F 37 °F (2003)
Degree Days  
Heating Degree Days 4    
Growing Degree Days 11 (Base 50)    
Moisture  
Dew Point 56 °F    
Average Humidity 75    
Maximum Humidity 100    
Minimum Humidity 46    
Precipitation  
Precipitation 0.00 in - - ()
Sea Level Pressure  
Sea Level Pressure 30.08 in    
Wind  
Wind Speed 4 mph ()    
Max Wind Speed 8 mph    
Max Gust Speed -    
Visibility 1.8 miles    
Events Fog    
Averages and records for this station are not official NWS values.
T = Trace of Precipitation, MM = Missing Value Source: Averaged Metar Reports

Daily Weather History Graph

Daily Weather History Graph

Search for Another Location

Airport or City:

Trip Planner

Search our weather history database for the weather conditions in past years. The results will help you decide how hot, cold, wet, or windy it might be!

Date:

Astronomy

Jan. 23, 2014 Rise Set
Actual Time 6:55 AM IST 5:41 PM IST
Civil Twilight 6:30 AM IST 6:06 PM IST
Nautical Twilight 6:02 AM IST 6:34 PM IST
Astronomical Twilight 5:34 AM IST 7:01 PM IST
Moon 12:02 AM IST (1/24) 10:54 AM IST (1/23)
Length of Visible Light 11h 35m
Length of Day
10h 46m
Waning Gibbous, 60% of the Moon is Illuminated
Jan 23
Waning Gibbous
Jan 24
Last Quarter
Jan 31
New
Feb 7
First Quarter
Feb 15
Full

Hourly Weather History & Observations

Time (IST) Temp. Dew Point Humidity Pressure Visibility Wind Dir Wind Speed Gust Speed Precip Events Conditions
12:00 AM 57.2 °F 55.4 °F 94% 30.09 in 1.2 mi NE 2.3 mph - N/A   Overcast
2:00 AM 57.2 °F 55.4 °F 94% 30.09 in 0.7 mi WNW 3.5 mph - N/A   Mostly Cloudy
2:30 AM 57 °F 56 °F 93% 30.12 in 1 mi SW 3.5 mph - -   Mist
4:00 AM 57.2 °F 55.4 °F 94% 30.06 in 0.3 mi West 4.6 mph - N/A Fog Fog
5:00 AM 55.4 °F 53.6 °F 94% 30.09 in 0.4 mi West 3.5 mph - N/A Fog Fog
5:30 AM 56 °F 55 °F 95% 30.11 in 0 mi 2.3 mph - - Fog Partial Fog
5:30 AM 55.4 °F 55.4 °F 100% 30.06 in 0.4 mi Variable 2.3 mph - N/A Fog Fog
6:30 AM 55.4 °F 55.4 °F 100% 30.12 in 0.5 mi WNW 4.6 mph - N/A Fog Fog
7:00 AM 55.4 °F 55.4 °F 100% 30.09 in 0.4 mi NW 3.5 mph - N/A Fog Fog
8:30 AM 56 °F 55 °F 96% 30.18 in 0 mi West 5.8 mph - - Fog Partial Fog
9:00 AM 57.2 °F 55.4 °F 94% 30.15 in 0.7 mi West 6.9 mph - N/A   Scattered Clouds
10:30 AM 64.4 °F 53.6 °F 68% 30.15 in 2.2 mi West 5.8 mph - N/A   Haze
11:00 AM 68.0 °F 51.8 °F 56% 30.15 in 2.5 mi WSW 5.8 mph - N/A   Haze
11:30 AM 69 °F 54 °F 48% 30.16 in 2 mi NW 4.6 mph - -   Haze
11:30 AM 69.8 °F 53.6 °F 56% 30.12 in 2.8 mi NW 4.6 mph - N/A   Haze
12:00 PM 69.8 °F 53.6 °F 56% 30.12 in 2.5 mi West 5.8 mph - N/A   Haze
12:30 PM 71.6 °F 53.6 °F 53% 30.09 in 2.5 mi NW 6.9 mph - N/A   Haze
1:30 PM 71.6 °F 50.0 °F 46% 30.06 in 3.1 mi NW 8.1 mph - N/A   Haze
2:00 PM 71.6 °F 50.0 °F 46% 30.06 in 3.1 mi WNW 4.6 mph - N/A   Haze
2:30 PM 72 °F 56 °F 47% 30.05 in 2 mi WNW 6.9 mph - -   Haze
2:30 PM 71.6 °F 55.4 °F 57% 30.04 in 3.1 mi WNW 4.6 mph - N/A   Haze
3:00 PM 71.6 °F 55.4 °F 57% 30.04 in 3.1 mi WNW 6.9 mph - N/A   Haze
3:30 PM 71.6 °F 55.4 °F 57% 30.04 in 3.1 mi WNW 8.1 mph - N/A   Haze
4:00 PM 71.6 °F 55.4 °F 57% 30.04 in 3.1 mi WNW 5.8 mph - N/A   Haze
4:30 PM 71.6 °F 55.4 °F 57% 30.04 in 3.1 mi WNW 6.9 mph - N/A   Haze
5:00 PM 69.8 °F 57.2 °F 64% 30.04 in 3.1 mi WNW 6.9 mph - N/A   Haze
5:30 PM 69 °F 58 °F 60% 30.05 in 2 mi West 5.8 mph - -   Haze
5:30 PM 68.0 °F 59.0 °F 73% 30.04 in 3.1 mi West 5.8 mph - N/A   Haze
6:00 PM 66.2 °F 59.0 °F 78% 30.04 in 3.1 mi West 5.8 mph - N/A   Haze
7:30 PM 64.4 °F 57.2 °F 77% 30.06 in 1.9 mi West 6.9 mph - N/A   Haze
8:00 PM 62.6 °F 57.2 °F 82% 30.06 in 1.6 mi West 5.8 mph - N/A   Partly Cloudy
8:30 PM 63 °F 58 °F 80% 30.09 in 1 mi West 6.9 mph - -   Mist
8:30 PM 62.6 °F 59.0 °F 88% 30.06 in 1.6 mi West 6.9 mph - N/A   Partly Cloudy
9:00 PM 62.6 °F 57.2 °F 82% 30.06 in 1.6 mi West 4.6 mph - N/A   Partly Cloudy
10:00 PM 62.6 °F 59.0 °F 88% 30.06 in 1.2 mi West 5.8 mph - N/A   Partly Cloudy
11:00 PM 59.0 °F 57.2 °F 94% 30.06 in 1.2 mi West 3.5 mph - N/A   Mist
11:30 PM 59 °F 57 °F 89% 30.10 in 1 mi West 4.6 mph - -   Mist